This demonstration page uses our WeatherBlox Daily Observations layout. Learn more.

Left ArrowRight Arrow

41.86663, -103.66717

Hourly Observations for April 3, 2017

Temp ( °F °C ) Dew Point ( °F °C ) Humidity (%) Winds ( mph kmh ) Pressure ( in mb ) Visibility ( mi km ) Precip ( " mm )
12:53 am 00:53 Cloudy with Light Rain 44 6.7 41 5 89 89 W 6 9 29.7 1006 6 9.65604 0.03 0.762
1:03 am 01:03 Cloudy with Light Rain 44 6.7 41 5 89 89 W 5 7 29.77 1008 8 12.87472 N/A
1:24 am 01:24 Cloudy 45 7 41 5 87 87 N 3 6 29.74 1007 10 16.0934 N/A
1:53 am 01:53 Cloudy 43 6.1 40 4.4 89 89 N 5 7 29.69 1005 10 16.0934 N/A
2:53 am 02:53 Cloudy 43 6.1 40 4.4 89 89 ENE 5 7 29.67 1005 10 16.0934 N/A
3:53 am 03:53 Mostly Cloudy 43 6.1 39 3.9 86 86 ENE 3 6 29.68 1005 10 16.0934 N/A
4:45 am 04:45 Cloudy 42 5.6 39 3.9 89 89 W 15 24 29.74 1007 10 16.0934 N/A
4:53 am 04:53 Cloudy 41 5 37 2.8 86 86 W 12 19 29.69 1006 10 16.0934 N/A
5:04 am 05:04 Cloudy 41 5 36 2 81 81 W 10 17 29.77 1008 10 16.0934 N/A
5:35 am 05:35 Cloudy 39 3.9 35 1.7 86 86 W 10 17 29.77 1008 10 16.0934 N/A
5:53 am 05:53 Cloudy 40 4.4 36 2.2 86 86 W 8 13 29.71 1006 10 16.0934 N/A
6:30 am 06:30 Cloudy with Light Rain 39 4 37 3 93 93 NNW 18 30 29.77 1008 10 16.0934 N/A
6:53 am 06:53 Cloudy 39 3.9 35 1.7 86 86 NNW 15 24 29.75 1008 10 16.0934 N/A
7:53 am 07:53 Cloudy 39 3.9 35 1.7 86 86 NNW 9 15 29.78 1008 10 16.0934 N/A
8:16 am 08:16 Cloudy 40 4.4 35 1.7 83 83 N 13 20 29.8 1009 10 16.0934 N/A
8:53 am 08:53 Cloudy 41 5 36 2.2 82 82 WNW 8 13 29.77 1008 10 16.0934 N/A
9:22 am 09:22 Cloudy 43 6 37 3 81 81 NNW 8 13 29.77 1008 10 16.0934 N/A
9:50 am 09:50 Mostly Cloudy 45 7 36 2 71 71 NW 10 17 29.77 1008 10 16.0934 N/A
9:53 am 09:53 Cloudy 44 6.7 36 2.2 73 73 NNW 9 15 29.76 1008 10 16.0934 N/A
10:53 am 10:53 Cloudy 45 7.2 36 2.2 71 71 NW 8 13 29.77 1008 10 16.0934 N/A
11:07 am 11:07 Cloudy 45 7.2 36 2.2 71 71 NW 6 9 29.77 1008 10 16.0934 N/A
11:53 am 11:53 Cloudy with Light Rain 46 7.8 36 2.2 68 68 N 12 19 29.76 1008 10 16.0934 N/A
12:17 pm 12:17 Cloudy 46 7.8 38 3.3 73 73 N 12 19 29.74 1007 10 16.0934 0.01 0.254
12:53 pm 12:53 Cloudy 47 8.3 38 3.3 71 71 NE 9 15 29.74 1007 10 16.0934 0.01 0.254
1:53 pm 13:53 Cloudy 49 9.4 34 1.1 56 56 NW 17 28 29.74 1007 10 16.0934 N/A
2:16 pm 14:16 Cloudy 48 9 37 3 66 66 NNE 14 22 29.74 1007 10 16.0934 N/A
2:53 pm 14:53 Mostly Cloudy 51 10.6 35 1.7 54 54 NNW 16 26 29.75 1008 10 16.0934 N/A
3:10 pm 15:10 Mostly Cloudy 49 9.4 38 3.3 66 66 NNE 15 24 29.74 1007 10 16.0934 N/A
3:21 pm 15:21 Cloudy 47 8.3 36 2.2 66 66 N 17 28 29.74 1007 10 16.0934 N/A
3:53 pm 15:53 Cloudy with Light Rain 47 8.3 36 2.2 66 66 NNE 17 28 29.77 1008 10 16.0934 N/A
4:53 pm 16:53 Partly Cloudy 48 8.9 33 0.6 56 56 N 14 22 29.78 1008 10 16.0934 N/A
5:53 pm 17:53 Mostly Cloudy 47 8.3 32 undefined 56 56 NNE 13 20 29.8 1009 10 16.0934 N/A
6:53 pm 18:53 Cloudy 44 6.7 35 1.7 71 71 N 7 11 29.84 1010 10 16.0934 N/A
7:53 pm 19:53 Cloudy 43 6.1 35 1.7 74 74 N 5 7 29.86 1011 10 16.0934 N/A
8:53 pm 20:53 Mostly Cloudy 41 5 34 1.1 76 76 NW 7 11 29.89 1012 10 16.0934 N/A
9:53 pm 21:53 Clear 37 2.8 31 -0.6 79 79 N 6 9 29.89 1012 10 16.0934 N/A
10:53 pm 22:53 Clear 35 1.7 31 -0.6 85 85 WNW 6 9 29.89 1012 10 16.0934 N/A
11:53 pm 23:53 Clear 35 1.7 31 -0.6 85 85 N 6 9 29.87 1011 10 16.0934 N/A

Powered by AerisWeather